Darstellungsparameter: Aktuell verwendete Einstellungen:
Skalierung der Graphiken ... ?
xyx+y,   Skalierungsfaktor:      Skalierung: Modus: x, Faktor: 1
Darstellungszeitraum ... ?
Vom - - bis: - -   Zeitraum: 26.07.2019 - 26.07.2019
Min/Max/Avg-Anzeige ... ?
Zeige MMA aktuell
Zeige MMA Monat
Zeige MMA alles
Zeige --A aktuell
Zeige --A Monat
Zeige --A alles
Keine MMA-Anzeige
MMA:
Keine MMA-Graphiken
MMA-Basis: 26.07.2019 - 26.07.2019
Quicknavigation für Darstellung... ?
Tage:      1T, 2T, 3T, 5T -1T -2T -3T -5T +1T +2T +3T +5T
Wochen: 1W, 2W, 3W -1W -2W -3W +1W +2W +3W
Monate: 1M, 3M, 6M -1M -3M -6M +1M +3M +6M
Jahre:    1J, 3J, 5J, 10J -1J -3J -5J -10J +1J +3J +5J +10J
Nutze für die Darstellung ... ?
Originaldaten oder Mittelwerte auf ...
Stundenbasis Tagesbasis Wochenbasis
Monatsbasis Jahresbasis      Datenbasis: Original-Daten
Darstellen als:
Statistik (Auto) Statistik J:M      Darstellung:
Zur Graphik,    zurück zur Übersicht aller Sensoren.
 
Tabellarische Datenbersicht: ?
 
Sensor: Nr:Datum:Temp:Feuchte:Taupunkt:
Aussen-T/F 1 26-07-2019 00:00:00 26.8 C 53 % 16.42 C
2 26-07-2019 00:05:00 26.7 C 53 % 16.33 C
3 26-07-2019 00:10:00 26.5 C 52 % 15.84 C
4 26-07-2019 00:15:00 26.4 C 53 % 16.05 C
5 26-07-2019 00:20:00 26.3 C 53 % 15.96 C
6 26-07-2019 00:25:00 26.2 C 54 % 16.16 C
7 26-07-2019 00:30:00 26.1 C 54 % 16.07 C
8 26-07-2019 00:35:00 26 C 53 % 15.68 C
9 26-07-2019 00:40:00 25.9 C 54 % 15.88 C
10 26-07-2019 00:45:00 25.9 C 54 % 15.88 C
11 26-07-2019 00:50:00 25.8 C 54 % 15.79 C
12 26-07-2019 00:55:00 25.7 C 54 % 15.7 C
13 26-07-2019 01:00:00 25.6 C 54 % 15.6 C
14 26-07-2019 01:05:00 25.5 C 55 % 15.8 C
15 26-07-2019 01:10:00 25.4 C 54 % 15.42 C
16 26-07-2019 01:15:00 25.3 C 56 % 15.89 C
17 26-07-2019 01:20:00 25.2 C 56 % 15.8 C
18 26-07-2019 01:25:00 25.2 C 57 % 16.08 C
19 26-07-2019 01:30:00 25.1 C 56 % 15.71 C
20 26-07-2019 01:35:00 24.9 C 58 % 16.07 C
21 26-07-2019 01:40:00 24.8 C 59 % 16.24 C
22 26-07-2019 01:45:00 24.6 C 60 % 16.32 C
23 26-07-2019 01:50:00 24.3 C 60 % 16.04 C
24 26-07-2019 01:55:00 24.1 C 60 % 15.85 C
25 26-07-2019 02:00:00 23.8 C 62 % 16.08 C
Sensor: Nr:Datum:Temp:Feuchte:Taupunkt:
Aussen-T/F 26 26-07-2019 02:05:00 23.6 C 64 % 16.39 C
27 26-07-2019 02:10:00 23.3 C 65 % 16.35 C
28 26-07-2019 02:15:00 23 C 66 % 16.31 C
29 26-07-2019 02:20:00 22.8 C 67 % 16.35 C
30 26-07-2019 02:25:00 22.6 C 68 % 16.39 C
31 26-07-2019 02:30:00 22.3 C 69 % 16.34 C
32 26-07-2019 02:35:00 22.2 C 69 % 16.24 C
33 26-07-2019 02:40:00 21.9 C 69 % 15.96 C
34 26-07-2019 02:45:00 21.7 C 68 % 15.54 C
35 26-07-2019 02:50:00 21.6 C 69 % 15.67 C
36 26-07-2019 02:55:00 21.4 C 68 % 15.25 C
37 26-07-2019 03:00:00 21.3 C 70 % 15.61 C
38 26-07-2019 03:05:00 21.2 C 71 % 15.73 C
39 26-07-2019 03:10:00 21.2 C 71 % 15.73 C
40 26-07-2019 03:15:00 21.1 C 70 % 15.42 C
41 26-07-2019 03:20:00 21.1 C 71 % 15.64 C
42 26-07-2019 03:25:00 21 C 71 % 15.54 C
43 26-07-2019 03:30:00 21 C 72 % 15.76 C
44 26-07-2019 03:35:00 20.9 C 72 % 15.66 C
45 26-07-2019 03:40:00 20.8 C 72 % 15.57 C
46 26-07-2019 03:45:00 20.8 C 72 % 15.57 C
47 26-07-2019 03:50:00 20.8 C 74 % 16 C
48 26-07-2019 03:55:00 20.7 C 74 % 15.9 C
49 26-07-2019 04:00:00 20.7 C 74 % 15.9 C
50 26-07-2019 04:05:00 20.6 C 75 % 16.01 C
Sensor: Nr:Datum:Temp:Feuchte:Taupunkt:
Aussen-T/F 51 26-07-2019 04:10:00 20.4 C 75 % 15.82 C
52 26-07-2019 04:15:00 20.3 C 75 % 15.72 C
53 26-07-2019 04:20:00 20.3 C 76 % 15.93 C
54 26-07-2019 04:25:00 20.2 C 77 % 16.04 C
55 26-07-2019 04:30:00 20.1 C 77 % 15.94 C
56 26-07-2019 04:35:00 19.9 C 77 % 15.75 C
57 26-07-2019 04:40:00 19.9 C 78 % 15.95 C
58 26-07-2019 04:45:00 19.8 C 78 % 15.85 C
59 26-07-2019 04:50:00 19.7 C 78 % 15.76 C
60 26-07-2019 04:55:00 19.6 C 79 % 15.86 C
61 26-07-2019 05:00:00 19.6 C 79 % 15.86 C
62 26-07-2019 05:05:00 19.5 C 78 % 15.56 C
63 26-07-2019 05:10:00 19.4 C 78 % 15.47 C
64 26-07-2019 05:15:00 19.3 C 78 % 15.37 C
65 26-07-2019 05:20:00 19.3 C 79 % 15.57 C
66 26-07-2019 05:25:00 19.3 C 78 % 15.37 C
67 26-07-2019 05:30:00 19.3 C 80 % 15.76 C
68 26-07-2019 05:35:00 19.3 C 80 % 15.76 C
69 26-07-2019 05:40:00 19.2 C 80 % 15.67 C
70 26-07-2019 05:45:00 19.2 C 80 % 15.67 C
71 26-07-2019 05:50:00 19.1 C 79 % 15.37 C
72 26-07-2019 05:55:00 19 C 79 % 15.28 C
73 26-07-2019 06:00:00 18.9 C 80 % 15.38 C
74 26-07-2019 06:05:00 19 C 79 % 15.28 C
75 26-07-2019 06:10:00 19 C 79 % 15.28 C
Sensor: Nr:Datum:Temp:Feuchte:Taupunkt:
Aussen-T/F 76 26-07-2019 06:15:00 18.9 C 80 % 15.38 C
77 26-07-2019 06:20:00 18.9 C 80 % 15.38 C
78 26-07-2019 06:25:00 18.9 C 80 % 15.38 C
79 26-07-2019 06:30:00 18.9 C 80 % 15.38 C
80 26-07-2019 06:35:00 18.9 C 81 % 15.57 C
81 26-07-2019 06:40:00 18.9 C 81 % 15.57 C
82 26-07-2019 06:45:00 19 C 81 % 15.67 C
83 26-07-2019 06:50:00 19.1 C 81 % 15.76 C
84 26-07-2019 06:55:00 19.1 C 82 % 15.96 C
85 26-07-2019 07:00:00 19.2 C 83 % 16.24 C
86 26-07-2019 07:05:00 19.3 C 83 % 16.34 C
87 26-07-2019 07:10:00 19.3 C 83 % 16.34 C
88 26-07-2019 07:15:00 19.4 C 83 % 16.44 C
89 26-07-2019 07:20:00 19.4 C 82 % 16.25 C
90 26-07-2019 07:25:00 19.5 C 83 % 16.54 C
91 26-07-2019 07:30:00 19.6 C 83 % 16.63 C
92 26-07-2019 07:35:00 19.7 C 83 % 16.73 C
93 26-07-2019 07:40:00 19.8 C 83 % 16.83 C
94 26-07-2019 07:45:00 19.9 C 82 % 16.74 C
95 26-07-2019 07:50:00 20.1 C 81 % 16.74 C
96 26-07-2019 07:55:00 20.2 C 81 % 16.84 C
97 26-07-2019 08:00:00 20.4 C 81 % 17.03 C
98 26-07-2019 08:05:00 20.5 C 82 % 17.32 C
99 26-07-2019 08:10:00 20.6 C 81 % 17.22 C
100 26-07-2019 08:15:00 20.7 C 82 % 17.52 C
Sensor: Nr:Datum:Temp:Feuchte:Taupunkt:
Aussen-T/F 101 26-07-2019 08:20:00 20.8 C 81 % 17.42 C
102 26-07-2019 08:25:00 20.9 C 80 % 17.32 C
103 26-07-2019 08:30:00 21.1 C 79 % 17.32 C
104 26-07-2019 08:35:00 21.3 C 79 % 17.51 C
105 26-07-2019 08:40:00 21.5 C 78 % 17.5 C
106 26-07-2019 08:45:00 21.7 C 79 % 17.9 C
107 26-07-2019 08:50:00 21.9 C 80 % 18.29 C
108 26-07-2019 08:55:00 21.9 C 78 % 17.89 C
109 26-07-2019 09:00:00 22.1 C 76 % 17.67 C
110 26-07-2019 09:05:00 22.3 C 76 % 17.86 C
111 26-07-2019 09:10:00 22.4 C 74 % 17.54 C
112 26-07-2019 09:15:00 22.7 C 73 % 17.61 C
113 26-07-2019 09:20:00 22.9 C 74 % 18.02 C
114 26-07-2019 09:25:00 23.1 C 70 % 17.33 C
115 26-07-2019 09:30:00 23.4 C 70 % 17.62 C
116 26-07-2019 09:35:00 23.7 C 67 % 17.21 C
117 26-07-2019 09:40:00 24.2 C 67 % 17.68 C
118 26-07-2019 09:45:00 24.6 C 66 % 17.83 C
119 26-07-2019 09:50:00 25 C 58 % 16.16 C
120 26-07-2019 09:55:00 25.7 C 60 % 17.35 C
121 26-07-2019 10:00:00 25.9 C 60 % 17.54 C
122 26-07-2019 10:05:00 26.3 C 58 % 17.38 C
123 26-07-2019 10:10:00 26.4 C 57 % 17.19 C
124 26-07-2019 10:15:00 26.8 C 55 % 17 C
125 26-07-2019 10:20:00 27.2 C 54 % 17.08 C
Sensor: Nr:Datum:Temp:Feuchte:Taupunkt:
Aussen-T/F 126 26-07-2019 10:25:00 27.6 C 48 % 15.6 C
127 26-07-2019 10:30:00 28.4 C 46 % 15.66 C
128 26-07-2019 10:35:00 29.1 C 46 % 16.3 C
129 26-07-2019 10:40:00 29.6 C 44 % 16.05 C
130 26-07-2019 10:45:00 30.1 C 43 % 16.14 C
131 26-07-2019 10:50:00 30.5 C 42 % 16.13 C
132 26-07-2019 10:55:00 30.8 C 41 % 16.02 C
133 26-07-2019 11:00:00 31 C 39 % 15.42 C
134 26-07-2019 11:05:00 31.2 C 39 % 15.6 C
135 26-07-2019 11:10:00 31.4 C 41 % 16.56 C
136 26-07-2019 11:15:00 31.5 C 40 % 16.26 C
137 26-07-2019 11:20:00 31.7 C 39 % 16.04 C
138 26-07-2019 11:25:00 31.9 C 40 % 16.62 C
139 26-07-2019 11:30:00 32.1 C 38 % 15.99 C
140 26-07-2019 11:35:00 32.3 C 40 % 16.97 C
141 26-07-2019 11:40:00 32.6 C 39 % 16.84 C
142 26-07-2019 11:45:00 32.8 C 37 % 16.19 C
143 26-07-2019 11:50:00 32.9 C 37 % 16.28 C
144 26-07-2019 11:55:00 33.2 C 37 % 16.54 C
145 26-07-2019 12:00:00 33.4 C 36 % 16.29 C
146 26-07-2019 12:05:00 33.6 C 35 % 16.02 C
147 26-07-2019 12:10:00 33.7 C 37 % 16.98 C
148 26-07-2019 12:15:00 33.8 C 35 % 16.19 C
149 26-07-2019 12:20:00 34.1 C 35 % 16.46 C
150 26-07-2019 12:25:00 34.2 C 36 % 16.99 C
Sensor: Nr:Datum:Temp:Feuchte:Taupunkt:
Aussen-T/F 151 26-07-2019 12:30:00 34.3 C 34 % 16.18 C
152 26-07-2019 12:35:00 34.5 C 34 % 16.35 C
153 26-07-2019 12:40:00 34.8 C 34 % 16.61 C
154 26-07-2019 12:45:00 35.1 C 33 % 16.4 C
155 26-07-2019 12:50:00 35.3 C 33 % 16.58 C
156 26-07-2019 12:55:00 35.4 C 32 % 16.18 C
157 26-07-2019 13:00:00 35.5 C 32 % 16.27 C
158 26-07-2019 13:05:00 35.6 C 31 % 15.86 C
159 26-07-2019 13:10:00 35.7 C 31 % 15.94 C
160 26-07-2019 13:15:00 35.7 C 32 % 16.44 C
161 26-07-2019 13:20:00 35.8 C 32 % 16.53 C
162 26-07-2019 13:25:00 35.8 C 31 % 16.03 C
163 26-07-2019 13:30:00 35.9 C 30 % 15.6 C
164 26-07-2019 13:35:00 36.1 C 31 % 16.29 C
165 26-07-2019 13:40:00 36.2 C 31 % 16.37 C
166 26-07-2019 13:45:00 36.4 C 31 % 16.54 C
167 26-07-2019 13:50:00 36.6 C 30 % 16.2 C
168 26-07-2019 13:55:00 36.8 C 29 % 15.84 C
169 26-07-2019 14:00:00 36.9 C 29 % 15.93 C
170 26-07-2019 14:05:00 36.9 C 28 % 15.38 C
171 26-07-2019 14:10:00 36.8 C 28 % 15.29 C
172 26-07-2019 14:15:00 36.9 C 28 % 15.38 C
173 26-07-2019 14:20:00 37.1 C 29 % 16.1 C
174 26-07-2019 14:25:00 37.4 C 27 % 15.24 C
175 26-07-2019 14:30:00 37.6 C 26 % 14.82 C
Sensor: Nr:Datum:Temp:Feuchte:Taupunkt:
Aussen-T/F 176 26-07-2019 14:35:00 37.8 C 26 % 14.99 C
177 26-07-2019 14:40:00 37.8 C 26 % 14.99 C
178 26-07-2019 14:45:00 37.7 C 24 % 13.67 C
179 26-07-2019 14:50:00 37.7 C 26 % 14.9 C
180 26-07-2019 14:55:00 37.7 C 24 % 13.67 C
181 26-07-2019 15:00:00 38.1 C 25 % 14.63 C
182 26-07-2019 15:05:00 38.3 C 25 % 14.8 C
183 26-07-2019 15:10:00 38.6 C 24 % 14.42 C
184 26-07-2019 15:15:00 38.7 C 25 % 15.13 C
185 26-07-2019 15:20:00 38.3 C 27 % 16 C
186 26-07-2019 15:25:00 37.3 C 30 % 16.8 C
187 26-07-2019 15:30:00 36.8 C 30 % 16.37 C
188 26-07-2019 15:35:00 36.3 C 31 % 16.46 C
189 26-07-2019 15:40:00 35.9 C 31 % 16.11 C
190 26-07-2019 15:45:00 35.6 C 32 % 16.35 C
191 26-07-2019 15:50:00 35.7 C 30 % 15.43 C
192 26-07-2019 15:55:00 35.6 C 30 % 15.34 C
193 26-07-2019 16:00:00 35.4 C 31 % 15.68 C
194 26-07-2019 16:05:00 35.3 C 32 % 16.09 C
195 26-07-2019 16:10:00 35.4 C 32 % 16.18 C
196 26-07-2019 16:15:00 35.4 C 31 % 15.68 C
197 26-07-2019 16:20:00 35.5 C 32 % 16.27 C
198 26-07-2019 16:25:00 35.6 C 37 % 18.65 C
199 26-07-2019 16:30:00 35.6 C 39 % 19.5 C
200 26-07-2019 16:35:00 35.6 C 40 % 19.91 C
Sensor: Nr:Datum:Temp:Feuchte:Taupunkt:
Aussen-T/F 201 26-07-2019 16:40:00 35.3 C 32 % 16.09 C
202 26-07-2019 16:45:00 34.9 C 34 % 16.7 C
203 26-07-2019 16:50:00 34.8 C 35 % 17.07 C
204 26-07-2019 16:55:00 34.6 C 33 % 15.97 C
205 26-07-2019 17:00:00 34.2 C 35 % 16.54 C
206 26-07-2019 17:05:00 34.1 C 42 % 19.35 C
207 26-07-2019 17:10:00 33.5 C 39 % 17.64 C
208 26-07-2019 17:15:00 32.9 C 40 % 17.51 C
209 26-07-2019 17:20:00 32.6 C 42 % 18.01 C
210 26-07-2019 17:25:00 32.4 C 44 % 18.57 C
211 26-07-2019 17:30:00 32.2 C 45 % 18.75 C
212 26-07-2019 17:35:00 31.9 C 46 % 18.83 C
213 26-07-2019 17:40:00 31.8 C 43 % 17.67 C
214 26-07-2019 17:45:00 31.7 C 44 % 17.94 C
215 26-07-2019 17:50:00 31.4 C 45 % 18.03 C
216 26-07-2019 17:55:00 31.3 C 44 % 17.58 C
217 26-07-2019 18:00:00 31.2 C 45 % 17.85 C
218 26-07-2019 18:05:00 31.1 C 45 % 17.76 C
219 26-07-2019 18:10:00 30.9 C 44 % 17.22 C
220 26-07-2019 18:15:00 30.9 C 44 % 17.22 C
221 26-07-2019 18:20:00 30.8 C 44 % 17.13 C
222 26-07-2019 18:25:00 30.7 C 45 % 17.4 C
223 26-07-2019 18:30:00 30.6 C 45 % 17.31 C
224 26-07-2019 18:35:00 30.3 C 46 % 17.39 C
225 26-07-2019 18:40:00 30.1 C 46 % 17.2 C
Sensor: Nr:Datum:Temp:Feuchte:Taupunkt:
Aussen-T/F 226 26-07-2019 18:45:00 29.7 C 46 % 16.84 C
227 26-07-2019 18:50:00 29.6 C 48 % 17.42 C
228 26-07-2019 18:55:00 29.4 C 48 % 17.24 C
229 26-07-2019 19:00:00 29.3 C 49 % 17.48 C
230 26-07-2019 19:05:00 29.3 C 50 % 17.8 C
231 26-07-2019 19:10:00 29.2 C 50 % 17.71 C
232 26-07-2019 19:15:00 29.1 C 50 % 17.61 C
233 26-07-2019 19:20:00 29.1 C 52 % 18.24 C
234 26-07-2019 19:25:00 28.9 C 51 % 17.74 C
235 26-07-2019 19:30:00 28.8 C 53 % 18.26 C
236 26-07-2019 19:35:00 28.7 C 53 % 18.17 C
237 26-07-2019 19:40:00 28.6 C 54 % 18.38 C
238 26-07-2019 19:45:00 28.4 C 54 % 18.19 C
239 26-07-2019 19:50:00 28.3 C 54 % 18.1 C
240 26-07-2019 19:55:00 28.2 C 56 % 18.59 C
241 26-07-2019 20:00:00 28.1 C 56 % 18.49 C
242 26-07-2019 20:05:00 28 C 56 % 18.4 C
243 26-07-2019 20:10:00 27.9 C 57 % 18.59 C
244 26-07-2019 20:15:00 27.8 C 57 % 18.5 C
245 26-07-2019 20:20:00 27.7 C 58 % 18.68 C
246 26-07-2019 20:25:00 27.6 C 57 % 18.31 C
247 26-07-2019 20:30:00 27.5 C 59 % 18.77 C
248 26-07-2019 20:35:00 27.4 C 57 % 18.13 C
249 26-07-2019 20:40:00 27.2 C 59 % 18.49 C
250 26-07-2019 20:45:00 27.1 C 59 % 18.4 C
Sensor: Nr:Datum:Temp:Feuchte:Taupunkt:
Aussen-T/F 251 26-07-2019 20:50:00 27.1 C 59 % 18.4 C
252 26-07-2019 20:55:00 26.9 C 59 % 18.21 C
253 26-07-2019 21:00:00 26.8 C 59 % 18.11 C
254 26-07-2019 21:05:00 26.7 C 59 % 18.02 C
255 26-07-2019 21:10:00 26.7 C 59 % 18.02 C
256 26-07-2019 21:15:00 26.6 C 60 % 18.2 C
257 26-07-2019 21:20:00 26.4 C 59 % 17.74 C
258 26-07-2019 21:25:00 26.3 C 59 % 17.65 C
259 26-07-2019 21:30:00 26.2 C 59 % 17.55 C
260 26-07-2019 21:35:00 26.2 C 59 % 17.55 C
261 26-07-2019 21:40:00 26.1 C 59 % 17.46 C
262 26-07-2019 21:45:00 26.1 C 60 % 17.73 C
263 26-07-2019 21:50:00 26 C 60 % 17.63 C
264 26-07-2019 21:55:00 25.9 C 60 % 17.54 C
265 26-07-2019 22:00:00 25.9 C 60 % 17.54 C
266 26-07-2019 22:05:00 25.8 C 61 % 17.71 C
267 26-07-2019 22:10:00 25.7 C 61 % 17.61 C
268 26-07-2019 22:15:00 25.7 C 61 % 17.61 C
269 26-07-2019 22:20:00 25.7 C 62 % 17.87 C
270 26-07-2019 22:25:00 25.7 C 62 % 17.87 C
271 26-07-2019 22:30:00 25.6 C 63 % 18.03 C
272 26-07-2019 22:35:00 25.4 C 63 % 17.84 C
273 26-07-2019 22:40:00 25.3 C 62 % 17.5 C
274 26-07-2019 22:45:00 25.2 C 63 % 17.65 C
275 26-07-2019 22:50:00 25.1 C 63 % 17.56 C
Sensor: Nr:Datum:Temp:Feuchte:Taupunkt:
Aussen-T/F 276 26-07-2019 22:55:00 24.9 C 64 % 17.62 C
277 26-07-2019 23:00:00 24.8 C 65 % 17.77 C
278 26-07-2019 23:05:00 24.8 C 65 % 17.77 C
279 26-07-2019 23:10:00 24.7 C 66 % 17.92 C
280 26-07-2019 23:15:00 24.6 C 66 % 17.83 C
281 26-07-2019 23:20:00 24.5 C 67 % 17.97 C
282 26-07-2019 23:25:00 24.4 C 67 % 17.87 C
283 26-07-2019 23:30:00 24.3 C 67 % 17.78 C
284 26-07-2019 23:35:00 24.2 C 67 % 17.68 C
285 26-07-2019 23:40:00 24.2 C 67 % 17.68 C
286 26-07-2019 23:45:00 24.1 C 68 % 17.82 C
287 26-07-2019 23:50:00 23.9 C 68 % 17.63 C
288 26-07-2019 23:55:00 23.8 C 68 % 17.54 C

Legende:
   Min
   Max


Maximal/Minimal-Werte vom 26.07.2019 - 26.07.2019

Sensor Min Max Avg
Temp
(Aussen-T/F)
18.9 °C
26-07-2019  06:00:00
38.7 °C
26-07-2019  15:15:00
27.22 °C
Feuchte
(Aussen-T/F)
24 %
26-07-2019  14:45:00
83 %
26-07-2019  07:00:00
56.07 %
Taupunkt
(Aussen-T/F)
13.67 C
26-07-2019  14:45:00
19.91 C
26-07-2019  16:35:00
16.62 C

Die Daten stammen von einer Davis Vantage Pro 2 Wetter-Station und werden unter Linux mit der Software wview2wettercgi und aufbereitet. Alle Angaben erfolgen ohne Gewähr für ihre Vollständigkeit oder Richtigkeit.
Kontakt: Rainer Krienke krienke@uni-koblenz.de . Meine Webseiten an der Uni Koblenz oder privat.
Version: $Revision: 0.78 $